GW4413 Weather Reports


Display with metric or nautical units.
time (UTC)temp
F
wind
direction
speed
MPH
gust
MPH
rain 1hr
in
rain 24hr
in
rain mn
in
humidity
%
barometer
mb
20260504034518 68 300 0.0 1.0 0.00 0.00 0.00 42 1009.9
20260504034006 68 300 0.0 1.0 0.00 0.00 0.00 44 1009.9
20260504033511 68 300 0.0 1.0 0.00 0.00 0.00 43 1009.9
20260504033019 68 300 0.0 1.0 0.00 0.00 0.00 45 1009.9
20260504032505 69 300 0.0 1.0 0.00 0.00 0.00 44 1010.0
20260504032009 69 300 0.0 1.0 0.00 0.00 0.00 44 1009.9
20260504031519 69 300 0.0 0.0 0.00 0.00 0.00 42 1009.9
20260504031004 69 300 0.0 0.0 0.00 0.00 0.00 41 1009.9
20260504030512 70 300 0.0 0.0 0.00 0.00 0.00 43 1009.9
20260504030018 70 300 0.0 1.0 0.00 0.00 0.00 41 1010.0
20260504025507 70 300 0.0 1.0 0.00 0.00 0.00 41 1010.1
20260504025008 70 300 0.0 1.0 0.00 0.00 0.00 40 1010.1
20260504024518 71 300 0.0 1.0 0.00 0.00 0.00 41 1010.1
20260504024004 71 300 0.0 1.0 0.00 0.00 0.00 42 1010.2
20260504023507 71 300 0.0 1.0 0.00 0.00 0.00 40 1010.2
20260504023024 71 300 0.0 1.0 0.00 0.00 0.00 40 1010.3
20260504022504 71 300 0.0 1.0 0.00 0.00 0.00 39 1010.2
20260504022008 71 300 0.0 1.0 0.00 0.00 0.00 38 1010.2
20260504021520 71 300 0.0 1.0 0.00 0.00 0.00 38 1010.3
20260504021004 72 300 0.0 1.0 0.00 0.00 0.00 38 1010.3
20260504020508 72 300 0.0 1.0 0.00 0.00 0.00 38 1010.3
20260504020020 72 300 0.0 2.0 0.00 0.00 0.00 39 1010.5
20260504015503 72 300 0.0 2.0 0.00 0.00 0.00 38 1010.6
20260504015009 72 300 0.0 1.0 0.00 0.00 0.00 38 1010.6
20260504014529 72 300 0.0 1.0 0.00 0.00 0.00 38 1010.6
20260504014004 72 300 0.0 1.0 0.00 0.00 0.00 38 1010.6
20260504013510 72 300 0.0 1.0 0.00 0.00 0.00 37 1010.6
20260504013021 73 300 0.0 1.0 0.00 0.00 0.00 36 1010.7
20260504012504 73 300 0.0 1.0 0.00 0.00 0.00 36 1010.7
20260504012007 73 300 0.0 1.0 0.00 0.00 0.00 35 1010.8
20260504011522 73 300 0.0 2.0 0.00 0.00 0.00 33 1010.9
20260504011005 73 300 0.0 2.0 0.00 0.00 0.00 34 1011.0
20260504010509 74 300 0.0 1.0 0.00 0.00 0.00 34 1011.1
20260504010020 74 300 0.0 2.0 0.00 0.00 0.00 32 1011.2
20260504005505 74 300 0.0 2.0 0.00 0.00 0.00 33 1011.2
20260504005011 74 270 0.0 2.0 0.00 0.00 0.00 34 1011.3
20260504004521 74 309 0.0 2.0 0.00 0.00 0.00 34 1011.4
20260504004002 74 69 0.0 2.0 0.00 0.00 0.00 34 1011.4
20260504003509 74 69 0.0 2.0 0.00 0.00 0.00 34 1011.4
20260504003023 74 5 0.0 2.0 0.00 0.00 0.00 34 1011.4
20260504002510 74 294 0.0 2.0 0.00 0.00 0.00 35 1011.5
20260504002011 74 294 0.0 2.0 0.00 0.00 0.00 34 1011.4
20260504001522 74 294 0.0 2.0 0.00 0.00 0.00 34 1011.4
20260504001007 74 294 0.0 1.0 0.00 0.00 0.00 37 1011.4
20260504000507 74 294 0.0 2.0 0.00 0.00 0.00 35 1011.4
20260504000020 74 294 0.0 2.0 0.00 0.00 0.00 36 1011.5
20260503235508 74 352 0.0 2.0 0.00 0.00 0.00 36 1011.6
20260503235008 74 352 0.0 2.0 0.00 0.00 0.00 36 1011.7
20260503234520 74 318 0.0 2.0 0.00 0.00 0.00 36 1011.7
20260503234012 74 94 0.0 2.0 0.00 0.00 0.00 35 1011.7
20260503233506 74 289 0.0 3.0 0.00 0.00 0.00 36 1011.7
20260503233021 74 327 0.0 3.0 0.00 0.00 0.00 36 1011.8
20260503232516 74 331 0.0 2.0 0.00 0.00 0.00 37 1011.8
20260503232011 74 331 0.0 2.0 0.00 0.00 0.00 38 1012.0
20260503231524 74 331 0.0 2.0 0.00 0.00 0.00 36 1012.0
20260503231010 74 331 0.0 2.0 0.00 0.00 0.00 36 1012.0
20260503230510 74 331 0.0 2.0 0.00 0.00 0.00 37 1012.1
20260503230020 74 331 0.0 2.0 0.00 0.00 0.00 38 1012.2
20260503225513 74 331 0.0 2.0 0.00 0.00 0.00 39 1012.2
20260503225009 74 331 0.0 2.0 0.00 0.00 0.00 38 1012.3
20260503224519 74 331 0.0 3.0 0.00 0.00 0.00 39 1012.4
20260503224008 74 18 0.0 3.0 0.00 0.00 0.00 39 1012.4
20260503223508 74 105 0.0 2.0 0.00 0.00 0.00 38 1012.5
20260503223021 73 323 0.0 2.0 0.00 0.00 0.00 40 1012.6
20260503222503 73 46 0.0 2.0 0.00 0.00 0.00 38 1012.7
20260503222003 73 303 1.0 2.0 0.00 0.00 0.00 41 1012.8
20260503221524 73 105 0.0 2.0 0.00 0.00 0.00 39 1012.8
20260503221007 73 92 0.0 2.0 0.00 0.00 0.00 38 1012.9
20260503220502 73 214 0.0 2.0 0.00 0.00 0.00 38 1013.0
20260503220026 73 151 0.0 2.0 0.00 0.00 0.00 39 1013.1
20260503215507 73 330 0.0 2.0 0.00 0.00 0.00 39 1013.1
20260503215003 73 330 0.0 2.0 0.00 0.00 0.00 39 1013.2
20260503214526 73 331 0.0 2.0 0.00 0.00 0.00 39 1013.2
20260503214003 73 331 0.0 3.0 0.00 0.00 0.00 40 1013.3
20260503213503 73 330 0.0 3.0 0.00 0.00 0.00 40 1013.4
20260503213022 73 303 0.0 3.0 0.00 0.00 0.00 38 1013.4
20260503212506 73 360 1.0 3.0 0.00 0.00 0.00 38 1013.3
20260503212002 73 323 0.0 3.0 0.00 0.00 0.00 38 1013.4
20260503211522 73 313 0.0 2.0 0.00 0.00 0.00 37 1013.5
20260503211003 73 300 0.0 2.0 0.00 0.00 0.00 37 1013.5
20260503210507 73 348 0.0 2.0 0.00 0.00 0.00 38 1013.6
20260503210023 73 310 0.0 3.0 0.00 0.00 0.00 38 1013.6
20260503205503 73 351 1.0 3.0 0.00 0.00 0.00 39 1013.6
20260503205002 72 305 0.0 2.0 0.00 0.00 0.00 40 1013.7
20260503204522 72 325 0.0 2.0 0.00 0.00 0.00 40 1013.7
20260503204006 72 293 0.0 2.0 0.00 0.00 0.00 42 1013.7
20260503203504 72 330 0.0 2.0 0.00 0.00 0.00 41 1013.7
20260503203024 72 330 0.0 3.0 0.00 0.00 0.00 41 1013.7
20260503202503 72 330 0.0 3.0 0.00 0.00 0.00 40 1013.7
20260503202004 72 350 1.0 2.0 0.00 0.00 0.00 41 1013.8
20260503201524 71 350 0.0 2.0 0.00 0.00 0.00 44 1013.8
20260503201003 71 350 0.0 2.0 0.00 0.00 0.00 43 1013.8
20260503200503 71 325 0.0 2.0 0.00 0.00 0.00 41 1013.9
20260503200024 71 325 0.0 2.0 0.00 0.00 0.00 42 1014.0
20260503195508 71 325 0.0 2.0 0.00 0.00 0.00 44 1014.0
20260503195003 71 325 0.0 2.0 0.00 0.00 0.00 43 1014.1
20260503194524 71 325 0.0 3.0 0.00 0.00 0.00 42 1014.2
20260503194003 71 5 0.0 3.0 0.00 0.00 0.00 43 1014.1
20260503193503 70 142 0.0 2.0 0.00 0.00 0.00 43 1014.2
20260503193023 70 167 0.0 2.0 0.00 0.00 0.00 41 1014.3
20260503192503 70 88 0.0 3.0 0.00 0.00 0.00 42 1014.4
20260503192010 70 299 0.0 3.0 0.00 0.00 0.00 43 1014.5
20260503191534 70 352 0.0 2.0 0.00 0.00 0.00 44 1014.5
20260503191004 69 343 0.0 2.0 0.00 0.00 0.00 46 1014.5
20260503190508 69 343 0.0 2.0 0.00 0.00 0.00 45 1014.6
20260503190021 69 270 0.0 2.0 0.00 0.00 0.00 45 1014.6
20260503185503 69 352 1.0 2.0 0.00 0.00 0.00 45 1014.7
20260503185014 68 5 0.0 2.0 0.00 0.00 0.00 47 1014.7
20260503184522 68 5 0.0 3.0 0.00 0.00 0.00 47 1014.7
20260503184007 68 329 1.0 3.0 0.00 0.00 0.00 48 1014.8
20260503183508 68 255 0.0 2.0 0.00 0.00 0.00 47 1014.8
20260503183021 67 270 0.0 2.0 0.00 0.00 0.00 49 1014.9
20260503182505 67 309 0.0 2.0 0.00 0.00 0.00 50 1014.9
20260503182011 67 302 0.0 2.0 0.00 0.00 0.00 54 1014.9
20260503181522 66 302 0.0 2.0 0.00 0.00 0.00 53 1015.0
20260503181005 66 302 0.0 2.0 0.00 0.00 0.00 53 1015.0
20260503180514 66 302 0.0 2.0 0.00 0.00 0.00 54 1015.0
20260503180032 65 279 0.0 2.0 0.00 0.00 0.00 54 1015.0
20260503175504 65 290 0.0 2.0 0.00 0.00 0.00 54 1015.1
20260503175008 64 350 0.0 2.0 0.00 0.00 0.00 57 1015.1
20260503174523 64 350 0.0 2.0 0.00 0.00 0.00 58 1015.2
20260503174008 64 350 0.0 2.0 0.00 0.00 0.00 61 1015.2
20260503173021 64 350 0.0 3.0 0.00 0.00 0.00 59 1015.3
20260503172506 64 310 0.0 3.0 0.00 0.00 0.00 59 1015.3
20260503172010 64 309 0.0 3.0 0.00 0.00 0.00 59 1015.3
20260503171525 64 310 0.0 3.0 0.00 0.00 0.00 59 1015.3
20260503171003 64 352 0.0 2.0 0.00 0.00 0.00 59 1015.3
20260503170511 64 352 0.0 3.0 0.00 0.00 0.00 59 1015.3
20260503151004 60 298 0.0 2.0 0.00 0.00 0.00 66 1015.5
20260503150503 60 298 0.0 2.0 0.00 0.00 0.00 66 1015.6
20260503131005 61 298 0.0 0.0 0.00 0.00 0.00 61 1015.2
20260503130510 61 298 0.0 0.0 0.00 0.00 0.00 60 1015.2
20260503110511 63 298 0.0 2.0 0.00 0.00 0.00 51 1015.4
20260503090504 61 298 0.0 1.0 0.00 0.00 0.00 60 1015.3
20260503081517 62 298 0.0 0.0 0.00 0.00 0.00 59 1015.3
20260503080504 63 298 0.0 0.0 0.00 0.00 0.00 54 1015.3
20260503072505 63 298 0.0 1.0 0.00 0.00 0.00 51 1015.2
20260503071514 62 298 0.0 0.0 0.00 0.00 0.00 53 1015.3
20260503071005 62 298 0.0 1.0 0.00 0.00 0.00 55 1015.2
20260503070503 62 298 0.0 1.0 0.00 0.00 0.00 54 1015.2
20260503055003 65 298 0.0 1.0 0.00 0.00 0.00 47 1015.2
20260503054520 65 298 0.0 1.0 0.00 0.00 0.00 47 1015.2
20260503054006 64 298 0.0 1.0 0.00 0.00 0.00 49 1015.2
20260503053504 64 298 0.0 1.0 0.00 0.00 0.00 50 1015.2
20260503052508 64 298 0.0 1.0 0.00 0.00 0.00 50 1015.3
20260503052003 64 298 0.0 1.0 0.00 0.00 0.00 50 1015.2
20260503051522 64 298 0.0 1.0 0.00 0.00 0.00 52 1015.2
20260503051008 64 298 0.0 1.0 0.00 0.00 0.00 53 1015.2
20260503050508 64 298 0.0 1.0 0.00 0.00 0.00 52 1015.2
20260503050022 64 298 0.0 1.0 0.00 0.00 0.00 53 1015.2
20260503045507 64 298 0.0 1.0 0.00 0.00 0.00 52 1015.1
20260503045008 64 298 0.0 1.0 0.00 0.00 0.00 52 1015.1
20260503044518 64 298 0.0 1.0 0.00 0.00 0.00 51 1015.0
20260503043506 64 298 0.0 1.0 0.00 0.00 0.00 52 1014.9
20260503043035 64 298 0.0 1.0 0.00 0.00 0.00 53 1014.9
20260503042506 64 298 0.0 1.0 0.00 0.00 0.00 51 1014.7
20260503041525 64 298 0.0 2.0 0.00 0.00 0.00 51 1014.8
20260503041007 64 298 0.0 2.0 0.00 0.00 0.00 52 1014.8
20260503040507 64 298 0.0 1.0 0.00 0.00 0.00 52 1014.7
20260503040022 64 298 0.0 1.0 0.00 0.00 0.00 52 1014.7
20260503035507 64 298 0.0 1.0 0.00 0.00 0.00 53 1014.6
20260503035008 64 298 0.0 1.0 0.00 0.00 0.00 52 1014.6